CAPE
2669 2263 2152 2851 2992 2952 3000 2524 1888 2777 3310 2750 2448 2387 2458 3567 3400 2704 2873 3668 4304 3984 4486 4964 4825 4686 4338 4746 5194 5096 5494 4934 4055 4042 4138 4402 3676 3199 2628 2607 2822 2679
2618 2527 2763 2236 3050 3386 3451 2926 2806 2862 3311 3570 2670 5054 3385 3035 2871 2789 3051 3258 3841 3396 4585 3932 4405 4040 3775 3776 4268 3876 4911 4714 4344 2630 3631 3697 4182 3553 3192 2970 2204 2570
2202 2450 2050 1837 1632 1850 2075 2515 2676 2391 2551 2436 2418 3634 2853 2454 2514 3718 3282 3516 3558 2652 4336 4203 3928 3917 3534 4248 4357 3733 4085 4503 3690 2816 4146 4502 4177 3859 4075 2922 2202 2487
2297 2070 1599 1404 1344 1724 1599 1903 2404 2900 2118 2457 2457 2149 1953 1988 2372 2656 3183 3531 3526 3343 3893 3982 3624 3222 3496 3948 4896 4228 3625 4128 3378 3835 4022 4580 4762 3814 3114 3456 3358 2234
1810 1885 1658 1600 1513 2394 2111 1991 1700 1911 2011 2192 2121 2494 2753 3316 3136 2554 3010 3306 3600 3108 3647 3365 3487 3419 3754 3759 4102 4039 3600 4200 3709 4946 4416 4316 4707 4129 3215 3158 3418 3109
2232 2119 2258 1890 1861 2122 1857 1965 2099 1796 1842 2232 2236 2040 2154 2338 2638 2012 2325 2657 2578 2348 2198 2651 3054 2994 3072 3776 3950 3648 3065 2910 2709 4102 4252 4084 3418 3201 2473 2768 3197 3027
1598 1814 1349 1226 995 2005 1716 1870 1876 2226 1376 1512 2382 2148 1889 2602 2710 2611 2479 2469 2030 2494 1703 2964 3524 3045 3072 3776 3974 4048 3978 3607 3511 3895 3898 3688 3887 3572 2734 2734 3636 3588
1545 1426 1279 1208 1095 851 1335 1335 1485 2040 1571 1686 1459 1929 1781 1786 2174 2058 2474 2531 2285 2036 2465 2847 3200 3465 2433 2970 3536 3708 3438 2685 2977 4017 4159 3961 3763 3637 3490 2816 3067 3905
1116 1318 1219 1190 930 738 783 846 1054 1348 1832 1648 1391 1476 1736 1707 1859 1870 2703 2986 2916 2690 3024 2828 3066 2727 2671 2778 3218 3564 3222 2483 2184 3686 3950 3664 3210 3392 3272 3360 3194 3373
898 768 916 868 670 618 584 588 668 944 1675 1772 1673 1393 1427 2162 1845 2325 3423 3557 3078 3014 2835 2870 2822 3002 2712 2699 3234 3379 3226 3260 3382 3295 3226 3213 3052 2814 2498 2915 2698 3139
402 496 566 724 600 446 354 351 401 551 1161 1378 1477 1333 1387 1714 2170 2156 3114 3071 2480 2478 2814 3109 2770 3260 3277 2338 2366 2644 3030 2838 3178 3363 3024 3306 3464 3208 2963 3424 3269 2816
780 446 368 442 559 450 314 277 294 298 485 1148 1400 1776 1695 1538 1609 1686 2292 2532 2493 2769 2751 3064 3442 3362 3492 3262 2247 2164 2924 2823 3121 3314 3100 3278 3151 2863 3176 3158 2922 3206
1408 1416 1007 388 701 523 404 264 248 240 253 582 1119 1625 1434 1421 1473 1826 1945 1876 2538 2891 2697 3166 3271 2812 3340 3596 3149 2823 2882 2864 2520 3046 3178 3204 2944 2664 2482 2214 2370 2326
1270 727 912 1558 1904 1761 1478 528 226 170 173 500 1484 1409 1264 1392 1344 1179 1260 1739 2040 2408 2664 2763 3144 2928 3360 3369 3035 2882 2812 2734 2959 2888 2986 2799 2202 2882 2792 2391 2450 2331
2966 2639 2320 2683 2617 3039 3278 2265 1393 710 891 941 1068 1215 1133 889 925 964 1115 1483 1544 2171 2550 2463 2041 2501 2785 2613 2719 2897 2320 2716 2679 2960 2690 2609 2342 2536 2440 2606 2414 1902
3707 3450 4292 4390 3987 2946 2671 2960 2179 1992 1306 742 935 1243 1331 1609 1430 1260 927 1095 1365 2033 2286 1898 1709 1757 2509 2149 2048 2880 2697 2061 2332 2726 2956 3201 3053 2865 2501 2321 1940 1494
3220 3658 3663 3497 3014 3043 3988 3970 3787 3422 2877 1978 1726 2002 2418 1714 1544 1484 565 1157 1190 1437 1786 1735 1387 1148 1691 1795 1504 1809 2265 2647 2728 3394 3174 3183 2856 3011 3128 2681 2156 1769
2992 2776 2710 2333 1922 2481 2220 2507 2814 2946 3335 2936 2674 2466 1971 1284 1378 1126 1386 1020 881 832 1052 1064 1340 1124 880 711 1212 1612 2113 2367 1872 1511 1392 2025 2484 2187 2361 2088 1695 1236
2097 2022 1947 1921 1948 1997 2131 2431 2459 2473 2274 2673 2728 2452 1864 1724 1745 1781 1653 1654 1565 973 776 665 1325 1216 832 488 719 1232 1195 1899 1075 671 331 335 1366 2544 1989 1970 2842 3192
1717 1670 1625 1324 1339 1443 2004 2044 2031 2029 1840 3067 2900 2207 1522 1474 1470 1720 1850 1849 1702 1602 2002 1311 616 559 442 397 276 453 712 1183 1494 642 458 367 975 1147 744 1105 2278 1917
1330 1546 1512 1355 1500 1724 1968 2076 2333 2470 1916 2651 2390 1928 2180 2229 2173 2350 1957 1319 1030 882 978 813 508 262 476 491 333 270 555 1052 1571 997 685 663 780 1219 1723 1328 1220 1563
990 1008 864 812 882 1138 1254 1361 1412 1312 1267 1316 2067 2344 2275 2316 2254 1943 1476 1328 1314 1087 555 570 421 349 441 429 367 500 834 1320 1546 1696 1499 1114 1030 1154 1488 2160 1948 1159
783 727 734 759 737 768 813 802 760 762 912 1126 1136 1485 1612 1952 2104 1543 1342 1212 1037 1127 1089 673 412 418 506 702 676 734 528 1482 1882 1884 2053 1662 1439 1932 2700 1383 1584 2314
623 617 662 624 655 734 770 778 794 745 736 826 1157 1281 1270 1453 1466 1326 1103 1062 1016 1032 983 583 426 624 901 742 824 832 901 1478 2464 3044 2477 2810 2434 2326 2113 1695 1603 2238
450 470 436 453 444 525 585 641 683 683 742 866 919 893 997 936 1034 902 810 914 947 1156 938 664 594 651 950 1048 1037 1040 1031 1613 2847 2802 2575 2685 2476 2130 1762 1887 1618 1454
430 435 404 352 362 364 480 509 456 671 742 834 876 894 590 584 612 634 657 685 828 951 1017 710 508 568 686 1152 1311 1320 1368 1437 2432 2218 2136 2058 2216 1950 1876 1528 1358 1281
Wind_Speed
4 6 5 6 4 3 1 3 2 3 1 1 1 1 2 3 3 4 4 4 5 4 3 2 2 2 4 3 3 3 2 3 3 4 1 1 1 3 2 3 3 2
6 6 6 6 5 4 3 4 3 3 2 1 1 4 3 2 5 3 5 5 5 4 3 4 3 3 2 2 1 0 2 2 2 2 2 1 1 3 2 0 3 5
9 7 6 7 6 6 6 3 5 3 3 2 3 1 1 1 1 3 4 6 5 5 6 2 3 3 1 3 1 1 2 1 0 2 4 3 3 1 2 1 2 4
10 8 8 7 7 7 7 6 6 5 4 4 4 1 1 3 0 1 1 3 4 3 5 4 2 3 2 4 2 1 1 3 1 3 4 3 2 2 1 4 2 5
11 8 9 8 8 10 8 7 6 7 4 5 3 3 4 4 4 1 1 1 2 2 2 2 2 2 1 2 3 1 1 3 1 4 3 2 2 1 1 2 5 5
13 11 10 9 12 13 10 8 7 6 5 8 4 5 6 5 2 2 2 3 4 3 3 3 2 2 3 3 2 2 2 3 2 4 4 3 2 2 1 2 5 4
15 13 10 10 9 13 11 10 9 6 6 6 7 5 6 7 3 3 3 2 3 3 4 5 1 2 3 2 3 2 1 2 2 7 4 3 4 1 1 3 3 4
16 15 13 12 10 11 10 11 9 10 10 9 7 8 8 6 6 4 5 4 1 2 3 6 3 2 2 3 3 3 3 3 4 5 3 2 2 3 3 1 4 6
16 17 15 13 12 11 11 10 10 9 13 11 8 9 8 7 7 5 9 7 5 4 5 6 5 4 4 3 4 4 3 2 4 5 4 3 4 4 4 4 3 4
16 17 16 15 13 13 12 12 11 11 13 13 10 9 9 9 8 8 12 11 9 7 6 5 7 5 4 4 5 5 5 5 4 6 4 2 3 3 4 5 4 4
15 16 15 15 14 14 13 13 12 12 14 14 11 10 11 10 10 10 13 12 10 7 8 7 7 7 5 4 6 6 5 5 6 8 6 3 2 3 3 3 3 2
16 15 15 15 14 14 14 14 14 13 14 16 14 15 14 11 11 11 13 13 11 9 9 9 9 9 8 6 5 6 7 7 8 8 7 6 4 4 5 4 4 4
17 17 17 15 15 15 16 16 15 15 12 15 16 16 14 13 12 12 14 13 13 11 10 11 10 9 10 10 9 9 9 8 8 11 9 8 7 6 4 6 5 5
18 16 15 18 19 19 17 16 15 14 15 16 20 15 15 15 13 13 14 15 14 13 13 13 13 12 12 12 11 11 11 11 11 11 12 11 10 8 7 7 7 7
21 21 20 20 20 21 21 20 18 17 17 19 18 17 15 15 15 14 15 16 16 16 14 14 14 13 15 14 13 12 13 13 13 14 15 14 11 7 9 11 9 8
23 26 29 30 27 22 22 22 20 20 19 18 19 18 19 19 18 15 15 17 19 19 18 16 16 16 18 12 14 16 17 15 16 17 16 16 16 14 11 12 10 10
30 30 30 32 33 32 30 28 28 27 28 27 27 27 24 19 18 22 20 22 20 21 21 19 18 18 20 16 13 15 17 19 19 18 19 18 17 16 16 14 13 13
29 30 32 34 33 31 29 28 27 26 25 26 26 25 26 24 21 17 24 23 18 24 23 22 21 23 24 16 18 20 20 20 18 18 19 20 20 18 17 16 15 14
30 30 34 38 33 29 29 29 26 25 25 25 26 28 28 26 26 28 25 26 28 29 24 23 28 35 30 25 20 20 20 18 18 20 20 20 21 21 19 18 21 23
33 33 34 37 32 28 28 24 21 22 24 27 31 32 29 27 27 27 29 32 33 32 32 34 40 40 41 35 22 16 19 20 21 20 22 21 22 23 23 25 25 23
29 31 35 37 36 33 32 30 30 31 30 33 33 33 32 31 30 30 31 32 33 36 38 40 38 45 42 39 34 27 25 27 25 23 24 25 26 26 26 26 25 25
25 29 31 32 33 32 31 32 33 34 34 35 35 36 36 36 34 33 32 33 36 37 36 35 39 44 43 39 35 36 35 32 31 28 27 27 28 28 27 31 32 34
24 24 24 24 29 29 28 30 34 37 36 35 35 37 37 33 30 30 32 33 35 34 33 34 36 39 41 37 36 40 39 37 33 31 30 29 29 31 35 36 32 32
24 22 21 22 24 23 22 21 24 28 30 29 26 27 28 28 29 28 28 30 32 32 32 33 33 36 37 38 40 40 38 37 36 35 34 34 34 36 35 36 36 38
28 28 27 28 29 27 24 23 23 23 23 19 20 19 19 21 22 22 23 27 29 32 36 40 39 38 39 36 38 41 38 35 35 36 36 35 35 35 35 35 37 37
28 28 27 28 28 27 25 25 26 26 25 24 25 24 25 26 25 20 17 23 25 30 36 42 44 42 40 38 36 40 40 35 34 34 33 33 34 36 33 34 36 36
Wind_Direction
255 258 269 270 260 266 249 302 338 327 232 187 27 0 353 312 304 292 319 311 323 330 351 12 -0 33 12 4 27 1 349 348 39 54 88 138 342 31 102 164 195 215
267 262 262 274 273 275 261 277 292 288 322 223 236 201 213 274 326 350 330 320 332 338 339 354 7 11 32 21 14 67 337 356 47 358 323 243 235 221 207 200 6 335
271 272 282 289 296 309 305 274 274 300 295 306 263 210 270 216 48 328 325 318 336 351 335 359 359 338 42 279 32 37 342 2 119 299 277 287 259 240 301 293 248 248
268 272 281 287 286 300 294 275 273 263 257 260 284 295 231 256 138 330 296 332 328 335 321 3 357 335 353 314 359 60 9 300 5 272 270 274 259 225 231 249 269 300
279 271 269 268 262 265 260 266 285 284 284 249 245 248 249 229 217 288 267 305 294 324 327 350 316 333 307 308 334 4 315 306 318 289 281 268 274 330 16 316 271 267
273 264 259 257 254 258 265 267 249 258 279 282 255 258 280 266 228 266 260 342 341 10 11 359 2 343 355 333 324 342 337 342 323 311 315 318 355 357 18 269 296 300
282 279 283 274 276 275 271 262 261 260 270 261 266 256 260 281 281 283 276 314 329 333 16 306 315 303 313 292 320 312 309 283 253 309 324 335 323 333 355 309 288 297
281 279 279 272 277 276 273 277 282 277 264 248 257 254 258 260 280 294 283 276 287 335 315 304 303 278 316 292 304 297 325 333 315 292 319 337 303 321 315 278 294 297
272 275 274 276 277 271 276 271 270 269 272 272 263 266 263 263 264 271 259 267 258 251 267 292 299 305 302 276 275 292 291 307 319 325 331 358 9 354 350 313 315 307
267 266 272 273 270 266 270 270 265 262 264 270 264 261 271 257 257 270 263 261 258 260 251 252 273 285 301 305 290 277 284 284 262 282 295 332 -0 343 344 331 345 334
267 266 268 269 267 262 265 264 263 260 260 268 267 263 263 260 257 258 260 264 266 265 267 260 267 271 269 289 277 281 288 283 277 279 283 282 266 288 307 294 304 321
244 255 259 259 256 256 257 259 258 256 258 265 265 262 259 263 263 260 263 265 265 262 263 267 260 268 272 271 278 274 264 272 274 270 279 293 291 277 277 271 274 272
241 234 244 252 250 244 246 247 252 258 257 268 269 266 266 269 267 264 260 266 268 272 271 264 264 265 264 267 268 267 257 261 267 268 266 261 256 258 259 265 267 274
245 244 242 240 240 243 240 241 248 249 253 256 265 264 266 267 269 268 266 266 268 271 268 266 265 262 260 260 260 267 272 263 260 264 263 251 248 255 261 262 262 264
238 240 238 239 239 234 233 234 236 241 243 242 250 264 262 261 262 260 262 270 269 264 267 268 267 267 261 255 259 258 261 261 259 259 269 276 276 264 259 258 254 255
242 242 236 233 231 234 234 229 227 229 229 235 248 263 257 252 251 258 275 278 274 270 265 266 266 268 270 274 264 261 258 260 264 260 260 258 255 251 257 268 269 264
242 242 241 241 237 230 231 230 226 227 232 234 228 225 232 239 249 240 247 253 264 269 270 268 264 257 270 274 278 278 261 258 259 263 263 260 256 255 251 248 247 256
242 242 243 240 236 232 232 232 232 232 234 234 234 235 242 236 236 259 265 271 264 259 261 262 257 260 255 258 277 280 273 263 260 259 260 262 261 257 257 252 248 249
236 238 241 241 232 232 231 230 231 235 238 240 241 243 242 242 238 233 238 248 260 261 252 253 256 235 225 245 253 272 282 273 263 261 255 256 262 267 264 260 254 251
238 238 239 250 252 242 243 244 239 244 246 251 254 250 249 246 242 241 241 245 248 250 253 254 250 234 226 213 224 259 277 274 265 261 259 253 248 247 248 252 258 258
238 240 242 244 247 249 250 250 247 246 248 250 257 261 259 257 253 249 249 248 249 251 253 256 254 246 234 229 230 242 251 261 254 252 253 253 251 249 250 249 249 252
242 241 246 249 250 250 250 248 245 244 247 249 251 258 259 255 252 250 248 250 253 255 259 258 255 251 250 243 237 239 242 251 251 249 249 249 248 249 248 249 249 251
252 255 251 251 252 254 253 249 246 244 246 250 252 253 254 250 249 251 250 252 257 261 262 259 254 253 258 255 248 241 241 245 246 247 249 249 251 252 252 254 253 254
256 261 261 258 259 260 259 255 248 248 246 244 253 256 251 246 249 253 255 254 260 263 263 263 260 252 249 254 256 252 250 248 246 245 246 248 249 251 253 255 255 253
257 259 257 257 258 258 258 256 257 251 254 254 249 244 245 247 251 257 258 262 263 264 267 263 259 256 253 253 256 255 254 254 252 250 250 251 253 255 255 255 256 256
247 249 254 257 257 256 253 253 250 250 252 252 249 248 248 246 246 250 267 273 273 271 265 260 257 257 259 256 253 253 253 257 259 260 256 253 254 255 256 257 256 258